Weather History for KNJM - October, 2012

Change the Weather History Date:

Friday, October 26, 2012

  Actual Average (KNCA) Record (KNCA)
Temperature  
Mean Temperature 68 °F -  
Max Temperature 77 °F 70 °F - (-1)
Min Temperature 60 °F 48 °F - (-1)
Cooling Degree Days 4    
Growing Degree Days 18 (Base 50)    
Moisture  
Dew Point 62 °F    
Average Humidity 89    
Maximum Humidity 96    
Minimum Humidity 66    
Precipitation  
Precipitation 0.04 in - - ()
Sea Level Pressure  
Sea Level Pressure 29.97 in    
Wind  
Wind Speed 9 mph (North)    
Max Wind Speed 14 mph    
Max Gust Speed 24 mph    
Visibility 8 miles    
Events Rain    
Averages and records for this station are not official NWS values.
T = Trace of Precipitation, MM = Missing Value Source: NWS Daily Summary

Daily Weather History Graph

Daily Weather History Graph

Search for Another Location

Airport or City:

Trip Planner

Search our weather history database for the weather conditions in past years. The results will help you decide how hot, cold, wet, or windy it might be!

Date:

Astronomy

Oct. 26, 2012 Rise Set
Actual Time 7:23 AM EDT 6:19 PM EDT
Civil Twilight 6:57 AM EDT 6:45 PM EDT
Nautical Twilight 6:28 AM EDT 7:15 PM EDT
Astronomical Twilight 5:58 AM EDT 7:44 PM EDT
Moon 4:29 PM EDT (10/26) 4:24 AM EDT (10/26)
Length of Visible Light 11h 47m
Length of Day
10h 56m
Waxing Gibbous, 91% of the Moon is Illuminated
Oct 26
Waxing Gibbous
Oct 29
Full
Nov 6
Last Quarter
Nov 13
New
Nov 20
First Quarter

Hourly Weather History & Observations

Time (EDT) Temp. Dew Point Humidity Pressure Visibility Wind Dir Wind Speed Gust Speed Precip Events Conditions
12:57 AM 64.0 °F 62.1 °F 93% 30.09 in 8.0 mi NNE 4.6 mph - N/A   Unknown
1:57 AM 64.0 °F 62.1 °F 93% 30.07 in 7.0 mi North 6.9 mph - N/A   Unknown
3:57 AM 61.0 °F 59.0 °F 93% 30.04 in 6.0 mi North 8.1 mph - N/A   Mist
4:17 AM 60.8 °F 59.0 °F 94% 30.03 in 5.0 mi North 11.5 mph - N/A   Partly Cloudy
4:57 AM 60.1 °F 59.0 °F 96% 30.04 in 5.0 mi North 9.2 mph - N/A   Partly Cloudy
5:57 AM 60.1 °F 57.9 °F 93% 30.04 in 4.0 mi North 10.4 mph - N/A   Clear
6:45 AM 60.8 °F 57.2 °F 88% 30.03 in 5.0 mi North 11.5 mph - N/A   Partly Cloudy
6:57 AM 60.1 °F 57.9 °F 93% 30.04 in 4.0 mi North 10.4 mph - N/A   Mostly Cloudy
7:47 AM 60.8 °F 59.0 °F 94% 30.03 in 2.5 mi North 10.4 mph - N/A   Mostly Cloudy
8:57 AM 63.0 °F 61.0 °F 93% 30.05 in 4.0 mi North 11.5 mph - N/A   Overcast
9:52 AM 66.2 °F 62.6 °F 88% 30.03 in 5.0 mi North 11.5 mph 19.6 mph N/A   Mostly Cloudy
9:57 AM 66.0 °F 63.0 °F 90% 30.05 in 5.0 mi North 10.4 mph 19.6 mph N/A   Mostly Cloudy
10:25 AM 68.0 °F 64.4 °F 88% 30.02 in 7.0 mi North 9.2 mph - N/A   Scattered Clouds
1:57 PM 77.0 °F 66.0 °F 69% 29.96 in 10.0 mi NNE 13.8 mph 20.7 mph N/A   Overcast
2:57 PM 75.0 °F 63.0 °F 66% 29.93 in 10.0 mi NE 11.5 mph 24.2 mph N/A   Partly Cloudy
3:57 PM 73.0 °F 64.0 °F 73% 29.92 in 10.0 mi NE 12.7 mph 23.0 mph N/A   Overcast
4:57 PM 68.0 °F 64.9 °F 90% 29.91 in 10.0 mi North 8.1 mph - 0.03 in Rain Light Rain
5:45 PM 68.0 °F 64.4 °F 88% 29.89 in 10.0 mi North 9.2 mph 19.6 mph 0.00 in Rain Light Rain
5:57 PM 66.9 °F 64.9 °F 93% 29.91 in 10.0 mi North 9.2 mph - 0.00 in Rain Light Rain
6:07 PM 66.2 °F 64.4 °F 94% 29.90 in 9.0 mi North 11.5 mph - 0.01 in Rain Light Rain
6:15 PM 66.2 °F 64.4 °F 94% 29.89 in 8.0 mi North 12.7 mph 23.0 mph 0.01 in Rain Light Rain
6:57 PM 66.9 °F 64.9 °F 93% 29.91 in 10.0 mi NNE 10.4 mph 19.6 mph 0.01 in   Mostly Cloudy
7:10 PM 66.2 °F 64.4 °F 94% 29.89 in 10.0 mi North 12.7 mph - N/A   Scattered Clouds
7:21 PM 66.2 °F 64.4 °F 94% 29.89 in 10.0 mi North 11.5 mph - N/A   Scattered Clouds
8:57 PM 66.9 °F 64.0 °F 90% 29.88 in 10.0 mi NNE 10.4 mph - N/A   Clear
9:57 PM 66.9 °F 64.0 °F 90% 29.87 in 10.0 mi North 12.7 mph - N/A   Clear
11:57 PM 68.0 °F 64.0 °F 87% 29.83 in 10.0 mi North 10.4 mph - N/A   Clear